Regional Weather Roundup
Issued by NWS

Home | Current Version | Previous Version | Text Only | Print | Product List | Glossary On
Versions: 1 2 3 4 5 6 7 8 9 10 11 12 13 14 15 16 17 18 19 20 21 22 23 24 25 26 27 28 29 30 31 32 33 34 35 36 37 38 39 40 41 42 43 44 45 46 47 48 49 50
000
ASUS43 KMKX 300900
RWRWI

WISCONSIN REGIONAL WEATHER ROUNDUP
NATIONAL WEATHER SERVICE MILWAUKEE/SULLIVAN WI
400 AM CDT FRI SEP 30 2016

NOTE: "FAIR" INDICATES FEW OR NO CLOUDS BELOW 12,000 FEET WITH NO
SIGNIFICANT WEATHER AND/OR OBSTRUCTIONS TO VISIBILITY.

WIZ001-002-006>008-014>016-023>028-301000-
NORTHWEST WISCONSIN

CITY           SKY/WX    TMP DP  RH WIND       PRES   REMARKS
SUPERIOR ARPT  CLOUDY    54  52  95 E3        30.45S
ASHLAND        CLOUDY    52  51  97 CALM      30.45S
HAYWARD        CLOUDY    50  48  93 NE8       30.43S
SIREN          CLOUDY    52  51  95 E3        30.42S
CUMBERLAND     FOG       45  45 100 CALM      30.41S VSB 3/4
RICE LAKE      FOG       46  45  96 CALM      30.41F VSB<1/4
CHETEK         NOT AVBL
LADYSMITH      CLEAR     47  46  97 N3        30.42F
EAU CLAIRE     NOT AVBL
MENOMONIE      CLEAR     50  49  95 N6        30.39S
NEW RICHMOND   CLEAR     49  49 100 NE5       30.39F
OSCEOLA          N/A     47  47 100 CALM      30.42S FOG
$$

WIZ003>005-009-010-017-018-301000-
NORTH CENTRAL WISCONSIN

CITY           SKY/WX    TMP DP  RH WIND       PRES   REMARKS
MANITOWISH WTR NOT AVBL
ARBOR VITAE    CLEAR     49  48  96 CALM      30.41F
WOODRUFF       CLEAR     49  48  96 CALM      30.41F
RHINELANDER    CLEAR     46  46 100 N3        30.40F
EAGLE RIVER    CLEAR     44  44 100 CALM      30.41S
LAND O LAKES   PTCLDY    47  47 100 N3        30.43F
PHILLIPS       FOG       47  47 100 N6        30.41S VSB 1/2
TOMAHAWK       CLEAR     44  43  97 CALM      30.40F FOG
MEDFORD        CLEAR    N/A N/A N/A NE6       30.37F
MERRILL        CLEAR     45  45 100 CALM      30.39S
$$

WIZ029-030-035-036-043>047-301000-
CENTRAL WISCONSIN

CITY           SKY/WX    TMP DP  RH WIND       PRES   REMARKS
WAUSAU         CLEAR     50  47  89 N6        30.34F
MOSINEE        CLEAR     50  48  93 N13       30.35F
MARSHFIELD     CLEAR     52  48  86 N9        30.33F
STEVENS POINT  CLEAR     49  48  97 N6        30.33F
WAUPACA        CLEAR     55  53  92 N7        30.32S
WAUTOMA        CLOUDY    55  52  89 N7        30.30F
WISC RAPIDS    CLEAR     52  50  93 NE8       30.34F
CAMP DOUGLAS   CLEAR     47  46  97 NW3       30.31F
$$

WIZ011>013-019>022-031-037>040-048>050-301000-
NORTHEAST WISCONSIN

CITY           SKY/WX    TMP DP  RH WIND       PRES   REMARKS
ANTIGO         CLEAR     47  46  98 CALM      30.36F
SHAWANO        MOCLDY    56  52  86 N9        30.34R
OCONTO         NOT AVBL
STURGEON BAY   CLOUDY    59  56  89 N8        30.32S
GREEN BAY      CLOUDY    57  55  93 N12       30.30S
MANITOWOC      CLOUDY    61  55  82 MISG      30.28S
APPLETON       CLOUDY    54  54 100 N15       30.27F
CLINTONVILLE   PTCLDY    54  50  87 NE7       30.32F
OSHKOSH        CLOUDY    58  55  90 N16       30.27F
$$

WIZ032>034-041-042-053>061-301000-
SOUTHWEST WISCONSIN

CITY           SKY/WX    TMP DP  RH WIND       PRES   REMARKS
LA CROSSE      CLEAR     55  52  89 NW9       30.32F
SPARTA         CLEAR     47  47  99 CALM      30.33F
VIROQUA        CLOUDY    54  52  92 N6        30.31F
BOSCOBEL       CLOUDY    60  53  77 VRB3      30.27F
PRAIRIE DU CHI PTCLDY    52  48  84 CALM      30.28F
PLATTEVILLE    CLEAR     55  54  97 N7        30.25F
$$

WIZ056-057-062-063-064-067-068-301000-
SOUTH CENTRAL WISCONSIN

CITY           SKY/WX    TMP DP  RH WIND       PRES   REMARKS
REEDSBURG      NOT AVBL
BARABOO/DELLS  CLOUDY    57  52  84 N7G16     30.27F
LONE ROCK      NOT AVBL
MINERAL POINT  PTCLDY    54  52  94 N7        30.26F
MADISON        CLOUDY    57  55  93 N10       30.25S
MIDDLETON      CLOUDY    59  56  89 N9        30.25S
WATERTOWN      CLOUDY    60  56  88 NE8       30.23S
MONROE         CLOUDY    55  54  94 N9G17     30.23S
JANESVILLE     CLOUDY    59  57  94 N5        30.21S
$$

WIZ051-052-058>065-066-070>072-301000-
SOUTHEAST WISCONSIN

CITY           SKY/WX    TMP DP  RH WIND       PRES   REMARKS
MILWAUKEE      CLOUDY    60  55  83 NE10      30.22S
WAUKESHA       CLOUDY    57  54  88 NE12      30.24S
MILWAUKEE/TIMM CLOUDY    59  52  77 NE12G18   30.23S
RACINE         LGT RAIN  61  57  87 NE16G23   30.22S
BURLINGTON     CLOUDY    58  54  86 NE12G18   30.20F
KENOSHA        CLOUDY    60  58  92 NE8       30.20S
FOND DU LAC    CLOUDY    59  56  89 NE14      30.27R
SHEBOYGAN      CLOUDY    61  55  81 NE16      30.26R
WEST BEND      CLOUDY    64  63  94 NE9       30.24F
JUNEAU         CLOUDY    59  54  85 N14       30.26S
$$

LSZ147-162-301000-
LAKE SUPERIOR

STATION/POSITION TIME  TEMP    WIND        PRES    WAVE
                       AIR SEA DIR/SP/G            HT/PER
                 (UTC) (F)     (DEG/KT/KT) (MB)    (FT/S)
W MID LAKE BUOY  0750   56 56   70/  6/ 10 1031.2R   2/ 5
DEVILS ISLAND    0800   53      60/  6/  8 1031.8S
SAXON HARBOR     0800   53     160/  3/  6 1030.5
$$

LMZ867-665-643>646-301000-
LAKE MICHIGAN

STATION/POSITION TIME  TEMP    WIND        PRES    WAVE
                       AIR SEA DIR/SP/G            HT/PER
                 (UTC) (F)     (DEG/KT/KT) (MB)    (FT/S)
CHAMBERS ISLAND  0800   61      10/ 16/ 19 1026.4F
S GREEN BAY BUOY 0800   58 62   20/ 16/ 17 1025.8F
N MID LAKE BUOY  0750   64 65   70/ 16/ 19 1026.2F   3/ 4
NORTHPORT PIER   0800   61      10/ 10/ 11 1026.8F
SISTER BAY       0808   59      40/  5/  7   N/A
KEWAUNEE LAKESHO 0800   62      50/  9/ 14 1025.1F
SHEBOYGAN LAKESH 0800   61      30/ 16/ 17 1024.2F
PORT WASHINGTON  0800   60      40/  8/ 14 1024.7F
ATWATER BUOY     0800   56 53   20/ 12/ 16 1023.2F
MILWAUKEE LAKESH 0810   59      20/ 15/ 17   N/A
S MID LAKE BUOY  0750   63 68   60/ 21/ 23 1021.3F   5/ 7
KENOSHA   LAKESH 0800   62      50/ 19/ 26 1022.0S
$$

TC  - TEMPERATURE IN CELSIUS
VSB - VISIBILITY IN STATUTE MILES
WCI - WIND CHILL INDEX
HX  - HEAT INDEX





USA.gov is the U.S. government's official web portal to all federal, state and local government web resources and services.